Regional Weather Roundup
Issued by NWS Grand Forks, ND

Home | Current Version | Previous Version | Graphics & Text | Print | Product List | Glossary On
Versions: 1 2 3 4 5 6 7 8 9 10 11 12 13 14 15 16 17 18 19 20 21 22 23 24 25 26 27 28 29 30 31 32 33 34 35 36 37 38 39 40 41 42 43 44 45 46 47 48 49 50
000
ASUS43 KFGF 212210
RWRFGF
PRAIRIE TO PINES  WEATHER ROUNDUP
NATIONAL WEATHER SERVICE EASTERN NORTH DAKOTA/GRAND FORKS ND
500 PM CDT SUN SEP 21 2014

 **SATELLITE DATA USED TO AUGMENT SKY COVER AT AUTOMATED STATIONS**
 *****  WEATHER ACROSS EASTERN NORTH DAKOTA  *****

CITY           SKY/WX    TMP DP  RH WIND       PRES   REMARKS
GRAND FORKS    MOSUNNY   67  50  54 NW5       30.19F
GRAND FRKS AFB MOSUNNY   66  51  58 N5        30.20F
GRAND FRKS NWS   N/A     66 N/A N/A NE1         N/A
DEVILS LAKE    MOSUNNY   66  46  48 W9        30.19F
FARGO          SUNNY     67  50  54 VRB3      30.21S
WAHPETON ARPT  PTCLDY    64  46  52 N12       30.21F
$$

 ***** WEATHER ACROSS CENTRAL AND WESTERN NORTH DAKOTA  *****

CITY           SKY/WX    TMP DP  RH WIND       PRES   REMARKS
BISMARCK       SUNNY     75  40  28 NW6G16    30.23F
MINOT          SUNNY     72  38  29 VRB3      30.20F
JAMESTOWN      SUNNY     67  48  50 W10       30.21F
MINOT AFB      SUNNY     72  40  31 W5        30.19F
GARRISON         N/A     71  44  37 SW13      30.22F
WILLISTON      SUNNY     73  36  25 S7        30.21F
DICKINSON      SUNNY     72  36  26 CALM      30.23F
HETTINGER      SUNNY     71  34  25 W5        30.26F
$$

 *****  OTHER AIRPORT OBSERVATIONS IN OUR AREA  *****

CITY           SKY/WX    TMP DP  RH WIND       PRES   REMARKS
WALHALLA         N/A     66  48  52 W3        30.17F
GRAFTON AIRPOR FAIR      64  50  59 SE3       30.19F
VALLEY CITY AR CLOUDY    68  48  49 N5        30.22S
CANDO          FAIR      68  45  42 W8        30.19F
CAVALIER APRT  FAIR      66  48  52 W3        30.18F
GWINNER        MOCLDY    70  46  43 NW7       30.23F
SHEYENNE NWR     N/A     69  49  48 N6        29.95S
ROLLA          FAIR      66  45  45 W8        30.21S
 ***** THE ABOVE OBSERVATIONS ARE NON NWS ARE NOT QUALITY
       CONTROLLED AND MAY MIS-REPORT RAIN FOR SNOW...
$$

  *****  WEATHER ACROSS NORTHERN MINNESOTA  *****

CITY           SKY/WX    TMP DP  RH WIND       PRES   REMARKS
FLAG ISLAND    PTSUNNY   59  50  72 W8        30.15S
WARROAD        CLOUDY    57  52  82 NW7       30.19S
ROSEAU         SUNNY     63  52  67 NW5       30.19S
HALLOCK        MOSUNNY   66  48  52 NW7       30.18F
THF RVR FALLS  CLOUDY    59  48  67 W6        30.20F
BAUDETTE       PTSUNNY   60  49  66 NW8       30.16F
WASKISH        MOSUNNY   59  52  77 SW5       30.17F
CROOKSTON      PTSUNNY   63  52  67 N3        30.21F
STEPHEN NDAWN    N/A     63  50  63 NW7         N/A
GREENBUSH NDAW   N/A     61  54  77 W7          N/A
$$
  *****  WEATHER ACROSS CENTRAL AND WEST MINNESOTA  *****

CITY           SKY/WX    TMP DP  RH WIND       PRES   REMARKS
FOSSTON        CLOUDY    57  50  77 W6        30.22S
BEMIDJI        MOSUNNY   60  48  65 W13       30.19S
PARK RAPIDS    CLOUDY    60  48  64 NW10      30.20R
ELBOW LAKE     FAIR      61  49  63 N12       30.22S
WADENA         PTSUNNY   57  46  67 NW8       30.21S
DETROIT LAKES  PTSUNNY   59  50  72 N6        30.23F
MOORHEAD       SUNNY     64  54  68 N6        30.22F
FERGUS FALLS   MOSUNNY   63  46  55 NE6       30.22F
MORRIS MN      SUNNY     64  50  59 N10G16    30.21S
STAPLES        CLOUDY    61  48  63 NW14      30.20R
$$
  *****  WEATHER ELSEWHERE ACROSS MINNESOTA  *****

CITY           SKY/WX    TMP DP  RH WIND       PRES   REMARKS
DULUTH         SUNNY     64  38  38 NW13      30.12S
INTRNTL FALLS  PTSUNNY   60  47  61 NW8       30.15R
ELY            SUNNY     57  41  54 NW13      30.13S
CLOQUET        SUNNY     63  37  39 NW13      30.14R
WHEATON        MOSUNNY   64  46  52 NW9       30.23F
BRAINERD       SUNNY     63  46  54 N10       30.18S
HIBBING        SUNNY     64  43  46 NW13      30.15R
ALEXANDRIA     CLOUDY    59  48  67 N10       30.23R
SAINT CLOUD    MOSUNNY   67  47  48 NW10      30.16R
MINNEAPOLIS    SUNNY     67  45  45 N14       30.15R
$$

  *****  WEATHER ACROSS SOUTH DAKOTA  *****

CITY           SKY/WX    TMP DP  RH WIND       PRES   REMARKS
SIOUX FALLS    MOSUNNY   71  45  39 NW15      30.22S
BROOKINGS      NOT AVBL
WATERTOWN      MOSUNNY   67  44  43 NW12      30.23S
HURON          MOSUNNY   72  44  36 N9G20     30.23S
SISSETON         N/A     69  47  45 N12       30.21S
ABERDEEN       MOSUNNY   71  46  40 N6        30.23S
MITCHELL       SUNNY     72  44  36 N8G16     30.24S
PIERRE         SUNNY     73  42  32 NW8       30.23F
MOBRIDGE       SUNNY     73  42  32 VRB3      30.22F
RAPID CITY     SUNNY     73  37  27 S8        30.27F
$$

  *****  SOME WEATHER IN NEARBY STATES *****

CITY           SKY/WX    TMP DP  RH WIND       PRES   REMARKS
GLASGOW MT     SUNNY     74  37  26 S10       30.18F
GREAT FALLS MT SUNNY     76  46  34 E6G16     30.09F
CHEYENNE WY    MOSUNNY   66  43  43 SE14      30.33F
SCOTTSBLUFF NE SUNNY     74  40  29 E17       30.28F
OMAHA NE       MOSUNNY   72  46  39 N17       30.20S
DES MOINES IA  MOSUNNY   69  47  45 N13       30.15R
DAVENPORT IA   MOSUNNY   65  50  58 NW10      30.08S
CHICAGO IL     PTSUNNY   65  49  56 NE10      29.99R
EAU CLAIRE WI  SUNNY     64  43  46 NW14G21   30.11R
LA CROSSE WI   PTSUNNY   67  45  45 NW14      30.09R
$$

  *****  SOME NATIONAL WEATHER *****

CITY           SKY/WX    TMP DP  RH WIND       PRES   REMARKS
LA GUARDIA NY  CLOUDY    77  66  68 E6        29.62F
RALEIGH NC     MOSUNNY   83  64  52 W9        29.80S
ATLANTA GA     MOSUNNY   86  59  39 W9        29.95F
NEW ORLEANS LA MOSUNNY   88  66  48 NE6       29.97S HX  90
OKLAHOMA CITY  PTSUNNY   79  50  36 NE18G25   30.11F
ALBUQUERQUE NM PTSUNNY   80  52  37 SE24      30.22F
SALT LAKE CITY CLOUDY    63  60  90 N3        30.16F
LOS ANGELES CA MOSUNNY   75  58  55 W15       29.95F
BOISE ID       CLOUDY    80  45  28 SE13      30.00F
SEATTLE WA     SUNNY     78  57  48 SW9       29.87S
$$

*** WEATHER ACROSS MANITOBA...SASKATCHEWAN AND ONTARIO ***
                ***ONTARIO***

CITY           SKY/WX    TMP DP  RH WIND       PRES   REMARKS
GERALDTON      CLOUDY    45  37  76 NW8       30.06R
THUNDER BAY    MOSUNNY   61  37  41 NW8       30.07R
SIOUX LOOKOUT  MOSUNNY   57  46  67 NW12G17   30.11R
TORONTO        MOSUNNY   68  52  56 W13G22    29.59R
BIG TROUT LK   MOSUNNY   52  36  54 SW7       30.01F
PICKLE LAKE    MOSUNNY   55  34  44 W9        30.06S
DRYDEN         CLOUDY    59  46  63 W10       30.12S
KENORA         PTSUNNY   57  50  77 NW6       30.16S
$$
                *** MANITOBA***

CITY           SKY/WX    TMP DP  RH WIND       PRES   REMARKS
BRANDON        MOSUNNY   70  45  40 W14G21    30.17S
DAUPHIN        SUNNY     72  46  40 W10G20    30.11F
ISLAND LAKE    PTSUNNY   54  48  82 W6        30.02F
PILOT MOUND    NOT AVBL
THE PAS        MOSUNNY   73  45  35 W13G21    29.95F
THOMPSON       PTSUNNY   64  52  63 SW13      29.86F
WINNIPEG       MOSUNNY   64  50  59 W10       30.16F
LYNN LAKE      SUNNY     68  46  45 W15G23    29.80F
CHURCHILL      CLOUDY    46  41  81 NE3       29.78F
GILLAM         PTSUNNY   54  46  76 W14G23    29.87S
$$
                ***SASKATCHEWAN***

CITY           SKY/WX    TMP DP  RH WIND       PRES   REMARKS
ESTEVAN        NOT AVBL
KINDERSLEY     MOSUNNY   77  41  27 S12G20    30.08F
LLOYDMINSTER   NOT AVBL
PRINCE ALBERT  MOSUNNY   79  46  31 W15G23    30.00F
REGINA         SUNNY     73  43  33 W10       30.15F
YORKTON        SUNNY     72  39  30 W12G17    30.12F
N. BATTLEFORD  SUNNY     81  43  26 SW14      30.05F
LA RONGE       MOSUNNY   75  50  41 SW10G17   29.90F
SASKATOON      SUNNY     79  45  29 SW13      30.07F
SWIFT CURRENT  SUNNY     75  37  25 S13G20    30.12F
$$
NOTE: THESE ARE AUTOMATED STATIONS WITH LIMITED QUALITY CONTROL
      "FAIR" INDICATES FEW OR NO CLOUDS BELOW 12,000 FEET WITH NO
      SIGNIFICANT WEATHER AND/OR OBSTRUCTIONS TO VISIBILITY.
      SKY/WX - SKY CONDITION AND SIGNIFICANT WEATHER.
      TMP - AIR TEMPERATURE.    DP   - DEWPOINT TEMPERATURE.
      RH  - RELATIVE HUMIDITY.  PRES - PRESSURE.
      HX  - HEAT INDEX.         WCI  - WIND CHILL INDEX.
$



USA.gov is the U.S. government's official web portal to all federal, state and local government web resources and services.